Location: Los Angeles
(34.0542°N, 118.2411°W)
Time: 17:29:43
(UTC-07:00)

Daily predictions for brighter satellites

Satellite Brightness Start Highest point End
(mag) Time Altitude Azimuth Time Altitude Azimuth Time Altitude Azimuth
Cosmos 2150 Rocket 4.2 20:20:16 10° S 20:25:33 57° ESE 20:30:45 10° NNE
Cosmos 2298 Rocket 4.0 20:20:36 10° S 20:25:50 67° ESE 20:31:06 10° NNE
Cosmos 1933 Rocket 3.6 20:24:23 10° S 20:28:38 60° E 20:32:55 10° NNE
Cosmos 1833 Rocket 2.8 20:23:18 10° NNW 20:28:58 88° WSW 20:34:36 10° SSE
Resurs 01 Rocket 1.6 20:26:02 10° SSE 20:30:27 84° ENE 20:34:53 10° N
CZ-2D R/B 3.4 20:29:40 10° S 20:33:33 80° W 20:37:28 10° NNW
Aurora 2 Rocket 4.3 20:28:51 10° WSW 20:33:40 25° SSW 20:37:21 10° SE
Star 37E S/N 40062 3.9 20:33:10 10° WSW 20:34:55 28° S 20:37:50 10° ESE
Cosmos 1892 3.3 20:32:12 10° SSE 20:35:47 38° E 20:39:22 10° NNE
Cosmos 1862 Rocket 3.8 20:31:54 10° N 20:36:17 52° E 20:40:39 10° SSE
Helios 1A 4.1 20:32:58 10° SE 20:36:27 26° ENE 20:39:59 10° NNE
Molniya-1 3.8 20:40:24 10° S 20:42:04 20° ESE 20:43:28 10° ENE
COSMOS 2455 2.9 20:40:44 10° S 20:46:33 55° ESE 20:52:24 10° NE
ERS-1 Rocket 4.4 20:43:27 11° ESE 20:46:57 21° ENE 20:50:40 10° NNE
Timation 2 Rocket 4.1 20:41:37 10° NNW 20:47:59 77° ENE 20:54:38 10° SSE
Cosmos 2344 4.4 20:42:42 10° SSE 20:48:49 26° ESE 20:54:58 10° NE
Spot 2 Rocket 3.8 20:44:32 10° S 20:49:36 73° WSW 20:54:44 10° NNW
Cosmos 1943 Rocket 3.2 20:46:17 10° SSE 20:50:38 24° ESE 20:54:59 10° NE
Cosmos 1816 Rocket 4.4 20:46:57 10° S 20:53:08 82° E 20:59:17 10° N
SJ-11-01 4.4 20:51:32 10° SSE 20:56:10 61° ENE 21:00:50 10° N
Aureole 1 4.3 20:55:03 10° S 20:57:55 46° ESE 21:00:59 10° NNE
Cosmos 2346 Rocket 4.4 20:54:47 10° S 21:00:47 72° E 21:06:49 10° N
Lacrosse 5 rocket 0.8 20:57:52 10° SSW 21:01:25 72° SE 21:05:00 10° NE
Okean 1-7 4.3 21:00:42 10° NNE 21:04:21 25° ENE 21:06:11 19° ESE
Cosmos 1939 Rocket 2.9 21:02:05 10° SSE 21:06:13 85° ENE 21:10:22 10° N
Cosmos 2369 Rocket 2.1 21:02:52 10° S 21:08:26 68° ESE 21:14:05 10° NNE
Cosmos 1346 Rocket 2.8 21:04:33 10° N 21:08:30 65° E 21:11:28 17° SSE
Cosmos 1933 4.4 21:06:32 10° NNW 21:10:23 45° W 21:14:12 10° SSW
Cosmos 1606 4.2 21:09:09 10° NNE 21:11:53 19° ENE 21:12:27 18° E
USA 215 4.3 21:06:57 12° E 21:12:20 34° NE 21:18:06 10° NNW
ISS -2.5 21:10:07 10° WSW 21:13:13 42° NW 21:16:20 10° NNE
Cosmos 1703 Rocket 3.8 21:08:59 10° N 21:13:16 48° E 21:15:47 22° SE
Envisat 3.6 21:11:34 10° S 21:16:33 58° W 21:21:33 10° NNW
SAR-Lupe-4 3.9 21:16:16 27° SE 21:17:49 47° ENE 21:21:16 10° N
Delta 168 4.1 21:14:55 10° SW 21:18:09 26° S 21:19:24 23° SSE
DNEPR-1 R/B 4.0 21:13:57 10° SSW 21:19:28 55° ESE 21:24:05 10° NE
OAO 3 Copernicus 4.4 21:17:25 10° WSW 21:22:19 56° SSE 21:25:51 19° E
YAOGAN 6 2.6 21:21:39 20° S 21:24:06 83° WSW 21:27:48 10° NNW
Cosmos 372 Rocket 4.3 21:20:24 15° SSE 21:24:17 43° ESE 21:29:07 10° NNE
USA 186 4.3 21:23:13 10° SW 21:24:35 13° W 21:26:02 10° WNW
Cosmos 1869 Rocket 3.4 21:24:23 13° S 21:28:13 79° E 21:32:33 10° N
Tiangong 2 2.0 21:26:04 10° NW 21:29:09 42° NNE 21:30:10 31° ENE
Cosmos 1125 Rocket 3.5 21:25:18 10° S 21:30:28 62° ESE 21:35:38 10° NNE
Cosmos 1900 4.4 21:29:54 10° NNW 21:35:05 82° ENE 21:37:32 32° SSE
Hubble Space Telescope 2.9 21:34:10 10° SW 21:36:11 13° SSW 21:36:35 13° SSW
CENTAUR R/B 2.3 21:31:18 10° SSW 21:37:07 82° ESE 21:43:44 10° NNE
ATLAS 5 CENTAUR R/B 3.7 21:32:55 10° N 21:38:05 28° NE 21:41:01 20° E
GPS 2-04 Rocket1 2.6 21:34:50 10° W 21:38:31 66° N 21:39:43 37° ENE
SAR-Lupe-1 3.9 21:38:16 47° SSE 21:39:13 80° ENE 21:42:48 10° N
SPOT 5 3.7 21:37:58 30° ESE 21:39:48 40° ENE 21:44:44 10° N
MetOp-B 4.3 21:37:58 31° SE 21:40:23 58° ENE 21:45:38 10° N
CZ-4B DEB 3.4 21:41:46 36° SW 21:42:29 46° W 21:45:20 10° NNW
Cosmos 2221 Rocket 3.5 21:39:24 10° N 21:43:50 77° E 21:45:26 39° SSE
Cosmos 1782 2.8 21:40:58 10° N 21:44:55 60° E 21:45:33 52° SE
Cosmos 2084 3.5 21:41:17 10° NNW 21:45:03 52° ENE 21:45:41 46° E
Helios 1B rocket 4.1 21:42:08 10° N 21:45:52 34° WNW 21:49:34 10° SW
Aureole 3 3.1 21:44:59 36° SSW 21:46:02 60° W 21:48:59 10° N
OE (NEXTSAT) 4.3 21:45:22 10° WNW 21:48:53 71° SW 21:49:05 68° S
ARGOS 3.2 21:47:52 37° SE 21:49:48 59° ENE 21:55:04 10° N
OAO 2 Rocket 4.0 21:46:29 10° W 21:51:06 37° SSW 21:52:03 33° S
Cosmos 1656 Rocket 4.3 21:51:20 34° E 21:51:20 34° E 21:56:01 10° NE
Cosmos 1408 2.6 21:50:53 45° SSW 21:51:57 79° W 21:55:40 10° N
H-2A R/B 2.7 21:53:53 37° ESE 21:55:08 43° ENE 22:00:10 10° N
Cosmos 1825 2.2 21:55:27 46° SSW 21:56:27 75° W 22:00:14 10° N
Lacrosse 4 Rocket 2.9 21:53:01 10° N 21:56:46 25° ENE 21:57:04 25° ENE
Milstar 3 3.5 21:46:22 10° WSW 21:57:43 52° S 22:01:06 33° ESE
Shenzhou-11 Module 2.8 21:56:31 10° WNW 21:58:54 50° WNW 21:58:54 50° WNW
Cosmos 1862 3.4 22:00:07 58° ENE 22:00:07 58° ENE 22:03:46 10° NNE
YAOGAN 11 4.1 22:07:56 65° ESE 22:08:22 71° ENE 22:12:53 10° N
Cosmos 1092 Rocket 4.3 22:11:57 41° E 22:12:24 42° E 22:18:07 10° NNE
H-2A R/B 4.3 22:14:15 13° NE 22:14:15 13° NE 22:15:21 10° NE
Nadezhda 4 Rocket 3.9 22:12:25 47° SSE 22:14:06 66° E 22:20:13 10° NNE
Cosmos 158 Rocket 3.6 22:09:45 10° NNW 22:14:39 80° ENE 22:15:07 71° SE
USA 245 4.4 22:15:09 43° S 22:17:17 81° WSW 22:23:41 10° NNW
ERS-1 Rocket 4.1 22:23:27 27° SW 22:25:26 37° W 22:30:06 10° NNW
H-2A ROCKET BODY 3.2 22:28:59 10° WSW 22:32:02 38° SSW 22:32:02 38° SSW
Cosmos 1943 Rocket 3.5 22:28:55 10° SW 22:34:05 38° WNW 22:39:16 10° N
Cosmos 1048 Rocket 4.1 22:30:42 10° NNW 22:35:57 65° WSW 22:36:25 62° SW
Cosmos 1340 3.9 22:32:43 10° NNW 22:35:41 40° WNW 22:35:41 40° WNW
DMSP B5D2-2 4.1 22:41:20 10° N 22:46:32 73° WNW 22:46:54 69° WSW
Landsat 7 4.1 22:51:55 64° NW 22:51:55 64° NW 22:56:01 10° NNW
SPOT 1/Viking Rocket 4.0 22:53:09 51° WSW 22:53:18 52° W 22:58:23 10° NNW
USA 215 3.2 22:54:18 61° SSW 22:54:59 65° SW 23:01:31 10° NW
Cosmos 2251 Rocket 4.3 22:50:35 10° N 22:54:41 41° NE 22:54:41 41° NE
GEOS 3 Rocket 3.9 23:00:20 60° NNE 23:00:20 60° NNE 23:04:59 10° NNW
Cosmos 1833 4.3 22:54:43 10° NNW 23:00:17 67° W 23:00:17 67° W
Cosmos 2344 4.4 22:55:16 10° SW 23:02:37 48° NW 23:10:38 10° NNE
SME Rocket 4.3 23:02:21 61° E 23:02:41 62° ENE 23:11:07 10° N
Cosmos 2195 Rocket 4.4 23:03:33 77° ENE 23:03:33 77° ENE 23:09:39 10° N
Terra 2.5 23:07:35 51° NNW 23:07:35 51° NNW 23:11:10 10° NNW
Cosmos 1655 Rocket 4.4 23:14:13 53° NE 23:14:13 53° NE 23:19:15 10° NNE
Cosmos 2297 Rocket 4.3 23:11:54 10° NNE 23:15:00 15° NE 23:15:01 15° NE
ATLAS 5 CENTAUR R/B 3.0 23:17:02 10° NW 23:22:34 50° WSW 23:22:34 50° WSW
Cosmos 2026 Rocket 4.2 23:33:38 65° NW 23:33:38 65° NW 23:39:19 10° N
H-2A R/B 4.0 23:34:31 20° W 23:34:37 20° W 23:38:33 10° NW
Lacrosse 4 Rocket 3.9 23:31:42 10° NW 23:33:24 19° WNW 23:33:24 19° WNW
Cosmos 1867 4.4 23:30:23 10° NNW 23:34:15 47° NNW 23:34:15 47° NNW
ATLAS CENTAUR R/B 4.2 23:45:26 15° N 23:45:26 15° N 23:46:12 10° N
